.
WxDataArchive / Data Records for 2008-01-06
2008-01-05 January 2008 2008-01-07

Data Records for Sunday, 06 January 2008

Time	Temp	Chill	HIndex	Humid	Dewpt	 Wind 	HiWind	WindDir	Rain 	Barom 
-----	----	-----	------	-----	-----	------	------	-------	-----	----- 
00:00	41.3	41.3	41.3	96	40.2	1	3	248	0.00	29.938 
00:05	41.5	41.5	41.5	96	40.4	1	5	248	0.00	29.938 
00:10	41.5	41.5	41.5	96	40.4	2	5	248	0.00	29.938 
00:15	41.6	41.6	41.6	96	40.5	1	4	248	0.00	29.936 
00:20	41.8	41.8	41.8	96	40.7	2	11	248	0.00	29.935 
00:25	41.8	41.8	41.8	96	40.7	1	5	270	0.00	29.935 
00:30	41.9	41.9	41.9	96	40.8	2	6	248	0.00	29.935 
00:35	41.9	41.9	41.9	96	40.8	2	6	68	0.00	29.936 
00:40	42.1	42.1	42.1	96	41.0	2	6	248	0.00	29.939 
00:45	42.1	42.1	42.1	96	41.0	2	5	248	0.00	29.938 
00:50	42.1	42.1	42.1	96	41.0	1	4	248	0.00	29.942 
00:55	42.1	42.1	42.1	96	41.0	1	6	248	0.00	29.941 
01:00	42.1	42.1	42.1	96	41.0	2	6	292	0.00	29.938 
01:05	42.2	42.2	42.2	96	41.1	2	6	248	0.00	29.940 
01:10	42.2	42.2	42.2	96	41.1	1	3	248	0.00	29.939 
01:15	42.2	42.2	42.2	96	41.1	1	6	270	0.00	29.938 
01:20	42.2	42.2	42.2	96	41.1	1	5	270	0.00	29.935 
01:25	42.2	42.2	42.2	96	41.1	1	3	292	0.00	29.935 
01:30	42.2	42.2	42.2	96	41.1	1	4	248	0.00	29.934 
01:35	42.3	42.3	42.3	96	41.2	1	5	270	0.00	29.934 
01:40	42.3	42.3	42.3	96	41.2	1	6	270	0.00	29.935 
01:45	42.3	42.3	42.3	96	41.2	1	5	248	0.00	29.935 
01:50	42.5	42.5	42.5	96	41.4	1	5	248	0.00	29.934 
01:55	42.5	42.5	42.5	96	41.4	1	3	248	0.00	29.936 
02:00	42.5	42.5	42.5	96	41.4	1	5	315	0.00	29.935 
02:05	42.5	42.5	42.5	96	41.4	1	4	292	0.00	29.935 
02:10	42.6	42.6	42.6	96	41.5	1	4	292	0.00	29.934 
02:15	42.6	42.6	42.6	96	41.5	1	4	315	0.00	29.934 
02:20	42.6	42.6	42.6	96	41.5	0	3	315	0.00	29.934 
02:25	42.6	42.6	42.6	96	41.5	1	3	22	0.00	29.935 
02:30	42.6	42.6	42.6	96	41.5	1	3	22	0.00	29.937 
02:35	42.6	42.6	42.6	96	41.5	1	2	45	0.00	29.938 
02:40	42.8	42.8	42.8	97	42.0	1	3	45	0.00	29.936 
02:45	42.8	42.8	42.8	97	42.0	1	3	22	0.00	29.937 
02:50	42.8	42.8	42.8	97	42.0	0	3	338	0.00	29.940 
02:55	42.9	42.9	42.9	97	42.1	1	3	292	0.00	29.941 
03:00	42.9	42.9	42.9	97	42.1	1	2	112	0.00	29.940 
03:05	43.1	43.1	43.1	97	42.3	1	3	45	0.00	29.942 
03:10	43.1	43.1	43.1	97	42.3	1	4	270	0.00	29.943 
03:15	43.2	43.2	43.2	97	42.4	1	5	270	0.00	29.941 
03:20	43.3	43.3	43.3	97	42.5	0	2	202	0.00	29.942 
03:25	43.3	43.3	43.3	97	42.5	1	4	248	0.00	29.946 
03:30	43.5	43.5	43.5	97	42.7	1	2	248	0.00	29.945 
03:35	43.6	43.6	43.6	97	42.8	1	5	248	0.00	29.945 
03:40	43.6	43.6	43.6	97	42.8	1	4	202	0.00	29.944 
03:45	43.6	43.6	43.6	97	42.8	1	3	202	0.00	29.940 
03:50	43.6	43.6	43.6	97	42.8	0	2	202	0.00	29.942 
03:55	43.8	43.8	43.8	97	43.0	1	6	248	0.00	29.938 
04:00	43.8	43.8	43.8	97	43.0	1	3	225	0.00	29.938 
04:05	43.9	43.9	43.9	97	43.1	1	3	90	0.00	29.941 
04:10	43.9	43.9	43.9	97	43.1	1	4	225	0.00	29.940 
04:15	43.9	43.9	43.9	97	43.1	0	4	248	0.00	29.938 
04:20	44.1	44.1	44.1	97	43.3	1	7	0	0.00	29.937 
04:25	44.1	44.1	44.1	97	43.3	1	4	248	0.00	29.941 
04:30	44.2	44.2	44.2	97	43.4	1	3	248	0.00	29.940 
04:35	44.2	44.2	44.2	97	43.4	1	4	225	0.00	29.938 
04:40	44.2	44.2	44.2	97	43.4	1	3	270	0.00	29.934 
04:45	44.2	44.2	44.2	97	43.4	0	2	45	0.00	29.934 
04:50	44.2	44.2	44.2	97	43.4	1	3	315	0.00	29.933 
04:55	44.2	44.2	44.2	97	43.4	0	3	292	0.00	29.932 
05:00	44.2	44.2	44.2	97	43.4	0	4	225	0.00	29.929 
05:05	44.3	44.3	44.3	97	43.5	0	2	158	0.00	29.925 
05:10	44.3	44.3	44.3	97	43.5	1	3	135	0.00	29.926 
05:15	44.5	44.5	44.5	97	43.7	1	2	292	0.00	29.928 
05:20	44.5	44.5	44.5	97	43.7	1	3	68	0.00	29.927 
05:25	44.5	44.5	44.5	97	43.7	1	5	68	0.00	29.922 
05:30	44.6	44.6	44.6	97	43.8	1	3	68	0.00	29.919 
05:35	44.6	44.6	44.6	97	43.8	1	4	90	0.00	29.920 
05:40	44.6	44.6	44.6	97	43.8	1	3	22	0.00	29.921 
05:45	44.8	44.8	44.8	97	44.0	1	3	292	0.00	29.921 
05:50	44.9	44.9	44.9	97	44.1	1	3	90	0.00	29.923 
05:55	44.9	44.9	44.9	97	44.1	1	3	90	0.00	29.926 
06:00	44.9	44.9	44.9	97	44.1	1	3	270	0.00	29.925 
06:05	45.1	45.1	45.1	97	44.3	1	3	90	0.00	29.918 
06:10	45.2	45.2	45.2	97	44.4	1	4	90	0.00	29.919 
06:15	45.2	45.2	45.2	97	44.4	1	3	112	0.00	29.919 
06:20	45.4	45.4	45.4	97	44.6	1	4	90	0.00	29.917 
06:25	45.5	45.5	45.5	97	44.7	1	4	90	0.00	29.917 
06:30	45.7	45.7	45.7	97	44.9	1	5	68	0.00	29.915 
06:35	45.7	45.7	45.7	97	44.9	2	5	90	0.00	29.914 
06:40	45.8	45.8	45.8	97	45.0	1	5	90	0.00	29.913 
06:45	46.0	46.0	46.0	97	45.2	2	5	90	0.00	29.913 
06:50	46.0	46.0	46.0	97	45.2	1	5	112	0.00	29.914 
06:55	46.1	46.1	46.1	97	45.3	1	5	112	0.00	29.915 
07:00	46.1	46.1	46.1	97	45.3	1	3	68	0.00	29.916 
07:05	46.2	46.2	46.2	97	45.4	1	3	68	0.00	29.915 
07:10	46.2	46.2	46.2	97	45.4	1	4	112	0.00	29.916 
07:15	46.2	46.2	46.2	97	45.4	1	3	90	0.00	29.916 
07:20	46.4	46.4	46.4	97	45.6	0	3	90	0.00	29.920 
07:25	46.4	46.4	46.4	97	45.6	1	3	112	0.00	29.922 
07:30	46.5	46.5	46.5	97	45.7	1	4	112	0.00	29.920 
07:35	46.7	46.7	46.7	97	45.9	1	4	112	0.00	29.918 
07:40	46.7	46.7	46.7	97	45.9	1	3	112	0.00	29.915 
07:45	46.8	46.8	46.8	97	46.0	1	4	90	0.00	29.914 
07:50	46.8	46.8	46.8	97	46.0	1	5	112	0.00	29.915 
07:55	46.8	46.8	46.8	97	46.0	1	3	90	0.00	29.916 
08:00	46.8	46.8	46.8	97	46.0	1	3	112	0.00	29.915 
08:05	46.8	46.8	46.8	97	46.0	1	4	112	0.00	29.914 
08:10	46.8	46.8	46.8	97	46.0	1	2	135	0.00	29.914 
08:15	46.8	46.8	46.8	97	46.0	1	2	112	0.00	29.915 
08:20	46.8	46.8	46.8	97	46.0	1	4	112	0.00	29.915 
08:25	46.8	46.8	46.8	97	46.0	2	4	112	0.00	29.914 
08:30	47.0	47.0	47.0	96	45.9	1	5	112	0.00	29.915 
08:35	47.0	47.0	47.0	96	45.9	1	2	68	0.00	29.917 
08:40	47.0	47.0	47.0	96	45.9	1	2	135	0.00	29.916 
08:45	47.0	47.0	47.0	96	45.9	1	3	135	0.00	29.914 
08:50	47.1	47.1	47.1	96	46.0	1	3	112	0.00	29.914 
08:55	47.1	47.1	47.1	96	46.0	1	3	112	0.00	29.915 
09:00	47.3	47.3	47.3	96	46.2	1	4	112	0.00	29.914 
09:05	47.3	47.3	47.3	96	46.2	1	4	112	0.00	29.914 
09:10	47.4	47.4	47.4	96	46.3	1	4	90	0.00	29.918 
09:15	47.6	47.6	47.6	96	46.5	1	4	112	0.00	29.913 
09:20	47.7	47.7	47.7	96	46.6	2	4	90	0.00	29.912 
09:25	47.9	47.9	47.9	96	46.8	1	4	90	0.00	29.912 
09:30	48.0	48.0	48.0	96	46.9	1	4	90	0.00	29.910 
09:35	48.0	48.0	48.0	96	46.9	2	6	90	0.00	29.910 
09:40	48.3	48.3	48.3	96	47.2	2	4	112	0.00	29.911 
09:45	48.5	48.5	48.5	96	47.4	2	5	90	0.00	29.912 
09:50	48.6	48.6	48.6	96	47.5	1	6	68	0.00	29.911 
09:55	48.8	48.8	48.8	96	47.7	2	7	112	0.00	29.912 
10:00	48.8	48.8	48.8	96	47.7	2	6	112	0.00	29.914 
10:05	48.9	48.9	48.9	95	47.5	1	5	112	0.00	29.913 
10:10	49.1	49.1	49.1	95	47.7	1	6	112	0.00	29.914 
10:15	49.1	49.1	49.1	95	47.7	1	4	112	0.00	29.912 
10:20	49.2	49.2	49.2	95	47.8	1	5	112	0.00	29.912 
10:25	49.4	49.4	49.4	95	48.0	1	5	112	0.00	29.913 
10:30	49.5	49.5	49.5	95	48.1	1	3	112	0.00	29.912 
10:35	49.6	49.6	49.6	95	48.2	1	4	90	0.00	29.912 
10:40	49.6	49.6	49.6	95	48.2	1	3	68	0.00	29.911 
10:45	49.8	49.8	49.8	95	48.4	2	7	68	0.00	29.909 
10:50	49.9	49.9	49.9	95	48.5	1	4	112	0.00	29.909 
10:55	49.9	49.9	49.9	95	48.5	1	3	270	0.00	29.908 
11:00	50.1	50.1	50.1	95	48.7	2	7	90	0.00	29.908 
11:05	50.1	50.1	50.1	95	48.7	1	4	248	0.00	29.907 
11:10	50.2	50.2	50.2	95	48.8	1	3	45	0.00	29.906 
11:15	50.4	50.4	50.4	95	49.0	1	4	112	0.00	29.904 
11:20	50.5	50.5	50.5	95	49.1	1	3	338	0.00	29.898 
11:25	50.7	50.7	50.7	95	49.3	1	5	0	0.00	29.895 
11:30	51.0	51.0	51.0	95	49.6	2	5	90	0.00	29.894 
11:35	51.0	51.0	51.0	95	49.6	2	5	112	0.00	29.894 
11:40	51.1	51.1	51.1	95	49.7	2	7	270	0.00	29.893 
11:45	51.3	51.3	51.3	95	49.9	1	4	315	0.00	29.891 
11:50	51.4	51.4	51.4	95	50.0	2	7	0	0.00	29.891 
11:55	51.4	51.4	51.4	95	50.0	2	5	270	0.00	29.890 
12:00	51.6	51.6	51.6	95	50.2	2	6	22	0.00	29.888 
12:05	51.6	51.6	51.6	95	50.2	1	6	22	0.00	29.881 
12:10	51.7	51.7	51.7	95	50.3	1	4	225	0.00	29.877 
12:15	51.7	51.7	51.7	94	50.0	2	7	248	0.00	29.874 
12:20	51.9	51.9	51.9	95	50.5	2	6	270	0.00	29.873 
12:25	52.0	52.0	52.0	95	50.6	2	6	292	0.00	29.867 
12:30	52.0	52.0	52.0	94	50.3	1	3	292	0.00	29.869 
12:35	52.2	52.2	52.2	94	50.5	2	9	270	0.00	29.866 
12:40	52.3	52.3	52.3	94	50.6	2	6	270	0.00	29.863 
12:45	52.3	52.3	52.3	94	50.6	2	7	270	0.00	29.859 
12:50	52.5	52.5	52.5	94	50.8	2	5	270	0.00	29.858 
12:55	52.6	52.6	52.6	94	50.9	2	7	270	0.00	29.857 
13:00	52.8	52.8	52.8	94	51.1	1	7	248	0.00	29.857 
13:05	52.8	52.8	52.8	94	51.1	2	6	248	0.00	29.851 
13:10	52.9	52.9	52.9	93	50.9	1	4	45	0.00	29.849 
13:15	52.9	52.9	52.9	93	50.9	2	9	248	0.00	29.846 
13:20	53.1	53.1	53.1	93	51.1	1	5	292	0.00	29.842 
13:25	53.1	53.1	53.1	93	51.1	2	5	248	0.00	29.841 
13:30	53.2	53.2	53.2	93	51.2	2	4	270	0.00	29.838 
13:35	53.3	53.3	53.3	93	51.3	2	9	22	0.00	29.833 
13:40	53.3	53.3	53.3	93	51.3	2	7	22	0.00	29.832 
13:45	53.5	53.5	53.5	93	51.5	3	12	248	0.00	29.837 
13:50	53.5	53.5	53.5	93	51.5	2	12	112	0.01	29.836 
13:55	53.6	53.6	53.6	92	51.3	2	9	248	0.00	29.834 
14:00	53.6	53.6	53.6	92	51.3	3	10	248	0.00	29.830 
14:05	53.6	53.6	53.6	92	51.3	2	7	270	0.00	29.829 
14:10	53.8	53.8	53.8	92	51.5	2	6	248	0.00	29.826 
14:15	53.9	53.9	53.9	92	51.6	2	7	292	0.00	29.825 
14:20	53.9	53.9	53.9	92	51.6	2	6	45	0.00	29.824 
14:25	54.1	54.1	54.1	92	51.8	2	9	45	0.00	29.821 
14:30	54.1	54.1	54.1	91	51.5	2	8	292	0.00	29.818 
14:35	54.2	54.2	54.2	91	51.6	2	11	248	0.00	29.820 
14:40	54.4	54.4	54.4	91	51.8	2	9	248	0.00	29.821 
14:45	54.4	54.4	54.4	91	51.8	2	10	248	0.00	29.816 
14:50	54.5	54.5	54.5	91	51.9	3	10	248	0.00	29.810 
14:55	54.5	54.5	54.5	91	51.9	2	9	270	0.00	29.808 
15:00	54.7	54.7	54.7	91	52.1	3	10	270	0.00	29.808 
15:05	54.7	54.7	54.7	91	52.1	2	7	112	0.00	29.807 
15:10	54.7	54.7	54.7	91	52.1	3	9	248	0.00	29.806 
15:15	54.8	54.8	54.8	90	51.9	2	5	270	0.00	29.804 
15:20	54.8	54.8	54.8	91	52.2	2	6	90	0.00	29.804 
15:25	54.8	54.8	54.8	90	51.9	2	7	90	0.00	29.804 
15:30	54.8	54.8	54.8	90	51.9	2	7	90	0.00	29.802 
15:35	54.8	54.8	54.8	90	51.9	3	9	270	0.00	29.803 
15:40	54.8	54.8	54.8	90	51.9	3	10	202	0.00	29.803 
15:45	54.8	54.8	54.8	90	51.9	3	6	248	0.00	29.804 
15:50	55.0	55.0	55.0	90	52.1	2	6	248	0.00	29.804 
15:55	55.0	55.0	55.0	90	52.1	2	6	248	0.00	29.806 
16:00	55.0	55.0	55.0	90	52.1	3	8	90	0.00	29.807 
16:05	55.0	55.0	55.0	90	52.1	2	7	68	0.00	29.807 
16:10	55.1	55.1	55.1	90	52.2	2	6	270	0.00	29.807 
16:15	55.1	55.1	55.1	90	52.2	2	7	248	0.00	29.808 
16:20	55.1	55.1	55.1	90	52.2	2	10	292	0.00	29.810 
16:25	55.3	55.3	55.3	90	52.4	2	10	248	0.00	29.810 
16:30	55.1	55.1	55.1	90	52.2	1	6	112	0.00	29.812 
16:35	55.1	55.1	55.1	90	52.2	1	5	90	0.00	29.811 
16:40	55.1	55.1	55.1	90	52.2	2	5	68	0.00	29.811 
16:45	55.0	55.0	55.0	90	52.1	2	5	90	0.00	29.811 
16:50	55.0	55.0	55.0	90	52.1	2	5	90	0.00	29.809 
16:55	55.0	55.0	55.0	90	52.1	2	6	68	0.00	29.810 
17:00	55.0	55.0	55.0	90	52.1	1	6	90	0.00	29.809 
17:05	55.0	55.0	55.0	90	52.1	1	3	22	0.00	29.807 
17:10	55.0	55.0	55.0	90	52.1	2	5	90	0.00	29.806 
17:15	55.0	55.0	55.0	90	52.1	1	3	45	0.00	29.806 
17:20	55.0	55.0	55.0	90	52.1	1	3	135	0.00	29.806 
17:25	55.0	55.0	55.0	90	52.1	1	3	45	0.00	29.806 
17:30	55.0	55.0	55.0	90	52.1	1	3	90	0.00	29.806 
17:35	55.1	55.1	55.1	90	52.2	2	5	90	0.00	29.806 
17:40	55.1	55.1	55.1	90	52.2	2	6	90	0.00	29.805 
17:45	55.1	55.1	55.1	90	52.2	1	3	135	0.00	29.806 
17:50	55.3	55.3	55.3	90	52.4	2	5	112	0.00	29.806 
17:55	55.3	55.3	55.3	90	52.4	1	5	22	0.00	29.806 
18:00	55.4	55.4	55.4	90	52.5	1	5	270	0.00	29.810 
18:05	55.6	55.6	55.6	90	52.7	1	2	22	0.00	29.812 
18:10	55.7	55.7	55.7	90	52.8	1	4	270	0.00	29.809 
18:15	56.0	56.0	56.0	90	53.1	2	10	248	0.00	29.814 
18:20	56.5	56.5	56.5	89	53.3	2	9	248	0.00	29.816 
18:25	56.6	56.6	56.6	88	53.1	3	7	270	0.00	29.818 
18:30	56.7	56.7	56.7	88	53.2	1	6	248	0.00	29.816 
18:35	56.7	56.7	56.7	88	53.2	3	8	248	0.00	29.819 
18:40	56.6	56.6	56.6	88	53.1	2	6	270	0.00	29.820 
18:45	56.5	56.5	56.5	88	53.0	2	7	248	0.00	29.819 
18:50	56.3	56.3	56.3	88	52.8	2	6	248	0.00	29.819 
18:55	56.2	56.2	56.2	89	53.0	2	5	270	0.00	29.821 
19:00	56.0	56.0	56.0	89	52.8	2	6	248	0.00	29.822 
19:05	55.9	55.9	55.9	89	52.7	2	7	248	0.00	29.827 
19:10	55.7	55.7	55.7	90	52.8	2	6	248	0.00	29.825 
19:15	55.9	55.9	55.9	90	53.0	2	6	248	0.00	29.830 
19:20	55.9	55.9	55.9	90	53.0	2	5	270	0.00	29.833 
19:25	56.0	56.0	56.0	90	53.1	3	9	248	0.00	29.833 
19:30	56.0	56.0	56.0	90	53.1	2	5	248	0.00	29.834 
19:35	56.0	56.0	56.0	90	53.1	2	7	248	0.00	29.835 
19:40	56.3	56.3	56.3	90	53.4	3	11	248	0.00	29.836 
19:45	56.6	56.6	56.6	90	53.7	3	7	248	0.00	29.835 
19:50	56.7	56.7	56.7	89	53.5	3	7	248	0.00	29.835 
19:55	56.7	56.7	56.7	89	53.5	3	10	270	0.00	29.835 
20:00	56.7	56.7	56.7	89	53.5	3	9	270	0.00	29.836 
20:05	56.7	56.7	56.7	89	53.5	3	8	270	0.00	29.838 
20:10	56.7	56.7	56.7	89	53.5	3	7	270	0.00	29.836 
20:15	56.7	56.7	56.7	89	53.5	3	6	248	0.00	29.835 
20:20	56.7	56.7	56.7	89	53.5	2	5	292	0.00	29.834 
20:25	56.7	56.7	56.7	89	53.5	2	9	270	0.00	29.835 
20:30	56.7	56.7	56.7	89	53.5	2	7	248	0.00	29.838 
20:35	56.7	56.7	56.7	89	53.5	2	11	248	0.00	29.838 
20:40	56.9	56.9	56.9	89	53.7	2	6	270	0.00	29.838 
20:45	56.7	56.7	56.7	88	53.2	3	6	270	0.00	29.836 
20:50	56.7	56.7	56.7	89	53.5	2	5	248	0.00	29.834 
20:55	56.6	56.6	56.6	89	53.4	3	8	248	0.00	29.836 
21:00	56.6	56.6	56.6	89	53.4	2	6	292	0.00	29.834 
21:05	56.6	56.6	56.6	89	53.4	2	6	248	0.00	29.834 
21:10	56.6	56.6	56.6	89	53.4	3	7	292	0.00	29.833 
21:15	56.7	56.7	56.7	89	53.5	3	7	248	0.00	29.835 
21:20	56.7	56.7	56.7	89	53.5	2	9	248	0.00	29.833 
21:25	56.7	56.7	56.7	89	53.5	2	6	248	0.00	29.834 
21:30	56.7	56.7	56.7	88	53.2	3	7	248	0.00	29.835 
21:35	56.7	56.7	56.7	88	53.2	2	7	248	0.00	29.835 
21:40	56.7	56.7	56.7	88	53.2	3	7	248	0.00	29.835 
21:45	56.7	56.7	56.7	88	53.2	2	6	248	0.00	29.837 
21:50	56.7	56.7	56.7	88	53.2	2	7	225	0.00	29.837 
21:55	56.7	56.7	56.7	89	53.5	3	6	270	0.00	29.841 
22:00	56.7	56.7	56.7	88	53.2	2	6	225	0.00	29.842 
22:05	56.7	56.7	56.7	88	53.2	2	6	270	0.00	29.846 
22:10	56.9	56.9	56.9	88	53.4	4	10	248	0.00	29.847 
22:15	57.0	57.0	57.0	88	53.5	4	10	248	0.00	29.847 
22:20	57.0	57.0	57.0	88	53.5	3	7	248	0.00	29.848 
22:25	57.2	57.2	57.2	88	53.7	4	9	248	0.00	29.847 
22:30	57.2	57.2	57.2	88	53.7	3	8	248	0.00	29.850 
22:35	57.2	57.2	57.2	88	53.7	3	7	270	0.00	29.852 
22:40	57.2	57.2	57.2	88	53.7	4	10	248	0.00	29.852 
22:45	57.2	57.2	57.2	88	53.7	3	7	270	0.00	29.853 
22:50	57.2	57.2	57.2	88	53.7	3	7	270	0.00	29.853 
22:55	57.3	57.3	57.3	88	53.8	3	9	248	0.00	29.855 
23:00	57.3	57.3	57.3	87	53.5	3	6	248	0.00	29.857 
23:05	57.5	57.5	57.5	87	53.7	4	10	248	0.00	29.853 
23:10	57.6	57.6	57.6	87	53.8	4	7	248	0.00	29.859 
23:15	58.0	58.0	58.0	86	53.8	4	12	248	0.00	29.860 
23:20	58.0	58.0	58.0	86	53.8	2	5	248	0.00	29.860 
23:25	58.1	58.1	58.1	86	53.9	3	12	248	0.00	29.860 
23:30	58.1	58.1	58.1	86	53.9	3	13	248	0.00	29.859 
23:35	58.1	58.1	58.1	86	53.9	4	11	248	0.00	29.859 
23:40	58.1	58.1	58.1	86	53.9	4	16	248	0.00	29.855 
23:45	58.0	58.0	58.0	86	53.8	4	9	248	0.00	29.853 
23:50	57.8	57.8	57.8	86	53.6	3	10	248	0.00	29.852 
23:55	57.6	57.6	57.6	87	53.8	4	11	248	0.00	29.849 

CoCoRaHS
IN-AL-39
A2 Web Hosting
Creative Commons License
GoDaddy
Look for:

loaded 2017-10-19 12:06:37 • last modified 2010-11-18 10:43:29
Privacy PolicyDisclaimer
• wx.awcolley.com is powered by PmWiki v.2002016 •
• all content (unless otherwise noted) © 2017 A W Colley